TimeCDT,TemperatureF,Dew PointF,Humidity,Sea Level PressureIn,VisibilityMPH,Wind Direction,Wind SpeedMPH,Gust SpeedMPH,PrecipitationIn,Events,Conditions,WindDirDegrees,DateUTC
12:54 AM,39.2,26.6,61,29.77,10.0,SE,21.9,-,N/A,,Clear,140,2013-03-21 05:54:00
1:54 AM,37.9,27.0,65,29.74,10.0,SSE,20.7,28.8,N/A,,Clear,150,2013-03-21 06:54:00
2:54 AM,37.9,27.0,65,29.70,10.0,SSE,19.6,26.5,N/A,,Clear,150,2013-03-21 07:54:00
3:54 AM,36.0,27.0,70,29.68,10.0,SSE,17.3,-,N/A,,Clear,160,2013-03-21 08:54:00
4:54 AM,34.0,27.0,75,29.66,10.0,SSE,16.1,-,N/A,,Clear,150,2013-03-21 09:54:00
5:54 AM,32.0,26.1,79,29.67,10.0,ESE,6.9,-,N/A,,Clear,110,2013-03-21 10:54:00
6:54 AM,28.9,24.1,82,29.68,10.0,East,6.9,-,N/A,,Clear,80,2013-03-21 11:54:00
7:54 AM,27.0,23.0,85,29.69,10.0,ENE,11.5,-,N/A,,Clear,60,2013-03-21 12:54:00
8:54 AM,30.0,25.0,82,29.68,10.0,East,13.8,-,N/A,,Clear,80,2013-03-21 13:54:00
9:54 AM,36.0,26.1,67,29.67,10.0,ESE,19.6,-,N/A,,Clear,110,2013-03-21 14:54:00
10:54 AM,39.9,27.0,60,29.66,10.0,ESE,15.0,-,N/A,,Clear,110,2013-03-21 15:54:00
11:54 AM,44.1,28.0,53,29.65,10.0,ESE,10.4,-,N/A,,Clear,120,2013-03-21 16:54:00
12:54 PM,48.0,28.0,46,29.62,10.0,East,11.5,-,N/A,,Clear,100,2013-03-21 17:54:00
1:54 PM,51.1,28.0,41,29.60,10.0,ESE,11.5,18.4,N/A,,Clear,120,2013-03-21 18:54:00
2:54 PM,53.1,28.9,40,29.57,10.0,East,11.5,-,N/A,,Clear,100,2013-03-21 19:54:00
3:54 PM,53.1,28.9,40,29.57,10.0,ESE,12.7,23.0,N/A,,Partly Cloudy,110,2013-03-21 20:54:00
4:54 PM,53.1,30.0,41,29.60,10.0,ENE,9.2,-,N/A,,Overcast,70,2013-03-21 21:54:00
5:54 PM,53.1,30.9,43,29.57,10.0,ESE,17.3,-,N/A,,Overcast,110,2013-03-21 22:54:00
6:26 PM,53.6,30.2,41,29.59,10.0,ESE,17.3,-,N/A,,Clear,110,2013-03-21 23:26:00
6:54 PM,53.1,32.0,45,29.59,10.0,East,13.8,-,N/A,,Clear,90,2013-03-21 23:54:00
7:54 PM,46.9,30.0,52,29.63,10.0,East,16.1,-,N/A,,Clear,80,2013-03-22 00:54:00
8:54 PM,42.1,30.0,62,29.67,10.0,East,13.8,-,N/A,,Clear,90,2013-03-22 01:54:00
9:54 PM,39.0,28.9,67,29.70,10.0,East,10.4,-,N/A,,Clear,100,2013-03-22 02:54:00
10:54 PM,37.0,28.9,73,29.83,10.0,Calm,Calm,-,N/A,,Mostly Cloudy,0,2013-03-22 03:54:00
11:54 PM,35.1,28.0,76,29.86,10.0,NNE,5.8,-,N/A,,Overcast,30,2013-03-22 04:54:00